Time,TemperatureF,DewpointF,PressureIn,WindDirection,WindDirectionDegrees,WindSpeedMPH,WindSpeedGustMPH,Humidity,HourlyPrecipIn,Conditions,Clouds,dailyrainin,SoftwareType,DateUTC
2013-03-17 00:00:00,58.4,50.1,29.86,East,89,0.0,0.0,74,0.00,RA,,0.00,WeatherDisplay:10.37,2013-03-17 04:00:00,
2013-03-17 00:02:00,58.1,49.9,29.86,East,89,0.0,0.0,74,0.00,RA,,0.00,WeatherDisplay:10.37,2013-03-17 04:02:00,
2013-03-17 00:03:00,58.0,49.8,29.86,East,89,0.0,0.0,74,0.00,RA,,0.00,WeatherDisplay:10.37,2013-03-17 04:03:00,
2013-03-17 00:08:00,57.5,50.0,29.86,East,89,0.0,1.1,76,0.00,RA,,0.00,WeatherDisplay:10.37,2013-03-17 04:08:00,
2013-03-17 00:13:00,57.4,50.2,29.86,East,89,0.0,1.1,77,0.00,RA,,0.00,WeatherDisplay:10.37,2013-03-17 04:13:00,
2013-03-17 00:18:00,57.1,49.6,29.86,East,89,0.0,0.0,76,0.00,RA,,0.00,WeatherDisplay:10.37,2013-03-17 04:18:00,
2013-03-17 00:23:00,56.6,49.8,29.86,East,89,0.0,0.0,78,0.00,RA,,0.00,WeatherDisplay:10.37,2013-03-17 04:23:00,
2013-03-17 00:28:00,56.5,49.7,29.87,East,89,0.0,0.0,78,0.00,RA,,0.00,WeatherDisplay:10.37,2013-03-17 04:28:00,
2013-03-17 00:34:00,56.3,49.5,29.87,East,89,0.0,0.0,78,0.00,FEW,,0.00,WeatherDisplay:10.37,2013-03-17 04:34:00,
2013-03-17 00:39:00,55.9,49.5,29.88,East,89,0.0,0.0,79,0.00,FEW,,0.00,WeatherDisplay:10.37,2013-03-17 04:39:00,
2013-03-17 00:44:00,55.7,49.3,29.88,East,89,0.0,0.0,79,0.00,FEW,,0.00,WeatherDisplay:10.37,2013-03-17 04:44:00,
2013-03-17 00:49:00,55.5,49.1,29.88,East,89,0.0,0.0,79,0.00,FEW,,0.00,WeatherDisplay:10.37,2013-03-17 04:49:00,
2013-03-17 00:54:00,55.4,49.0,29.88,East,89,0.0,0.0,79,0.00,FEW,,0.00,WeatherDisplay:10.37,2013-03-17 04:54:00,
2013-03-17 00:59:00,55.0,48.9,29.88,East,94,0.0,0.0,80,0.00,FEW,,0.00,WeatherDisplay:10.37,2013-03-17 04:59:00,
2013-03-17 01:04:00,54.6,48.9,29.88,East,94,0.0,0.0,81,0.00,BKN,,0.00,WeatherDisplay:10.37,2013-03-17 05:04:00,
2013-03-17 01:09:00,54.2,48.5,29.88,East,95,0.0,0.0,81,0.00,BKN,,0.00,WeatherDisplay:10.37,2013-03-17 05:09:00,
2013-03-17 01:14:00,53.9,48.5,29.89,East,96,0.0,0.0,82,0.00,BKN,,0.00,WeatherDisplay:10.37,2013-03-17 05:14:00,
2013-03-17 01:19:00,53.6,48.6,29.88,East,94,0.0,0.0,83,0.00,BKN,,0.00,WeatherDisplay:10.37,2013-03-17 05:19:00,
2013-03-17 01:24:00,53.4,48.7,29.89,East,94,0.0,1.1,84,0.00,BKN,,0.00,WeatherDisplay:10.37,2013-03-17 05:24:00,
2013-03-17 01:29:00,53.5,48.8,29.89,ENE,65,0.9,2.3,84,0.00,BKN,,0.00,WeatherDisplay:10.37,2013-03-17 05:29:00,
2013-03-17 01:34:00,53.1,48.4,29.88,ENE,65,0.0,0.0,84,0.00,BKN,,0.00,WeatherDisplay:10.37,2013-03-17 05:34:00,
2013-03-17 01:39:00,52.9,48.2,29.89,ENE,65,0.1,1.1,84,0.00,BKN,,0.00,WeatherDisplay:10.37,2013-03-17 05:39:00,
2013-03-17 01:44:00,52.5,48.1,29.88,ENE,65,0.0,0.0,85,0.00,BKN,,0.00,WeatherDisplay:10.37,2013-03-17 05:44:00,
2013-03-17 01:49:00,52.7,48.3,29.88,East,87,0.1,1.0,85,0.00,BKN,,0.00,WeatherDisplay:10.37,2013-03-17 05:49:00,
2013-03-17 01:54:00,53.0,48.6,29.89,East,87,0.1,1.1,85,0.00,BKN,,0.00,WeatherDisplay:10.37,2013-03-17 05:54:00,
2013-03-17 01:59:00,52.8,48.4,29.88,East,89,0.0,1.1,85,0.00,BKN,,0.00,WeatherDisplay:10.37,2013-03-17 05:59:00,
2013-03-17 02:04:00,52.5,48.1,29.89,East,89,0.0,0.0,85,0.00,BKN,,0.00,WeatherDisplay:10.37,2013-03-17 06:04:00,
2013-03-17 02:10:00,52.1,47.7,29.89,East,89,0.0,1.1,85,0.00,BKN,,0.00,WeatherDisplay:10.37,2013-03-17 06:10:00,
2013-03-17 02:15:00,51.8,48.1,29.89,East,89,0.0,0.0,87,0.00,BKN,,0.00,WeatherDisplay:10.37,2013-03-17 06:15:00,
2013-03-17 02:21:00,51.7,47.6,29.89,East,89,0.0,0.0,86,0.00,BKN,,0.00,WeatherDisplay:10.37,2013-03-17 06:21:00,
2013-03-17 02:26:00,51.9,48.5,29.89,ESE,105,0.1,1.1,88,0.00,BKN,,0.00,WeatherDisplay:10.37,2013-03-17 06:26:00,
2013-03-17 02:32:00,52.2,48.4,29.89,ESE,105,0.0,0.0,87,0.00,BKN,,0.00,WeatherDisplay:10.37,2013-03-17 06:32:00,
2013-03-17 02:37:00,52.3,48.2,29.90,ESE,105,0.0,0.0,86,0.00,BKN,,0.00,WeatherDisplay:10.37,2013-03-17 06:37:00,
2013-03-17 02:42:00,52.4,48.6,29.90,ESE,105,0.0,0.0,87,0.00,BKN,,0.00,WeatherDisplay:10.37,2013-03-17 06:42:00,
2013-03-17 02:47:00,53.0,49.2,29.90,ESE,105,0.0,0.0,87,0.00,BKN,,0.00,WeatherDisplay:10.37,2013-03-17 06:47:00,
2013-03-17 02:53:00,53.7,49.0,29.90,West,259,0.2,1.1,84,0.00,BKN,,0.00,WeatherDisplay:10.37,2013-03-17 06:53:00,
2013-03-17 02:58:00,53.2,48.5,29.89,WSW,257,0.0,0.0,84,0.00,BKN,,0.00,WeatherDisplay:10.37,2013-03-17 06:58:00,
2013-03-17 03:03:00,52.8,48.4,29.90,WSW,257,0.0,0.0,85,0.00,BKN,,0.00,WeatherDisplay:10.37,2013-03-17 07:03:00,
2013-03-17 03:08:00,52.4,48.0,29.90,WSW,240,0.3,1.1,85,0.00,BKN,,0.00,WeatherDisplay:10.37,2013-03-17 07:08:00,
2013-03-17 03:13:00,51.7,47.6,29.90,WSW,241,0.0,0.0,86,0.00,BKN,,0.00,WeatherDisplay:10.37,2013-03-17 07:13:00,
2013-03-17 03:18:00,51.6,48.2,29.91,SE,136,0.1,1.1,88,0.00,SCT,,0.00,WeatherDisplay:10.37,2013-03-17 07:18:00,
2013-03-17 03:23:00,51.7,47.6,29.91,West,263,0.2,1.1,86,0.00,SCT,,0.00,WeatherDisplay:10.37,2013-03-17 07:23:00,
2013-03-17 03:28:00,51.7,48.0,29.91,West,260,0.0,0.0,87,0.00,SCT,,0.00,WeatherDisplay:10.37,2013-03-17 07:28:00,
2013-03-17 03:33:00,51.5,47.8,29.91,West,268,0.0,0.0,87,0.00,SCT,,0.00,WeatherDisplay:10.37,2013-03-17 07:33:00,
2013-03-17 03:39:00,52.1,48.3,29.91,East,86,0.0,0.0,87,0.00,SCT,,0.00,WeatherDisplay:10.37,2013-03-17 07:39:00,
2013-03-17 03:44:00,51.6,47.9,29.91,East,96,0.1,1.1,87,0.00,SCT,,0.00,WeatherDisplay:10.37,2013-03-17 07:44:00,
2013-03-17 03:49:00,51.6,48.2,29.91,East,96,0.0,1.1,88,0.00,SCT,,0.00,WeatherDisplay:10.37,2013-03-17 07:49:00,
2013-03-17 03:54:00,51.6,47.9,29.91,East,96,0.1,1.0,87,0.00,SCT,,0.00,WeatherDisplay:10.37,2013-03-17 07:54:00,
2013-03-17 03:59:00,51.2,47.5,29.91,East,96,0.0,0.0,87,0.00,SCT,,0.00,WeatherDisplay:10.37,2013-03-17 07:59:00,
2013-03-17 04:04:00,51.1,48.0,29.91,East,96,0.0,0.0,89,0.00,SCT,,0.00,WeatherDisplay:10.37,2013-03-17 08:04:00,
2013-03-17 04:09:00,51.6,48.2,29.91,East,96,0.0,0.0,88,0.00,SCT,,0.00,WeatherDisplay:10.37,2013-03-17 08:09:00,
2013-03-17 04:14:00,51.5,48.1,29.92,East,96,0.0,0.0,88,0.00,SCT,,0.00,WeatherDisplay:10.37,2013-03-17 08:14:00,
2013-03-17 04:19:00,51.2,47.5,29.91,East,96,0.0,0.0,87,0.00,OVC,,0.00,WeatherDisplay:10.37,2013-03-17 08:19:00,
2013-03-17 04:24:00,51.0,47.6,29.91,East,97,0.0,0.0,88,0.00,OVC,,0.00,WeatherDisplay:10.37,2013-03-17 08:24:00,
2013-03-17 04:29:00,50.6,47.5,29.91,East,97,0.0,0.0,89,0.00,OVC,,0.00,WeatherDisplay:10.37,2013-03-17 08:29:00,
2013-03-17 04:34:00,50.6,47.5,29.91,East,97,0.0,0.0,89,0.00,OVC,,0.00,WeatherDisplay:10.37,2013-03-17 08:34:00,
2013-03-17 04:40:00,50.8,47.7,29.91,East,97,0.0,0.0,89,0.00,OVC,,0.00,WeatherDisplay:10.37,2013-03-17 08:40:00,
2013-03-17 04:45:00,50.8,47.7,29.91,East,97,0.0,0.0,89,0.00,OVC,,0.00,WeatherDisplay:10.37,2013-03-17 08:45:00,
2013-03-17 04:50:00,50.7,47.6,29.91,ESE,114,0.0,0.0,89,0.00,OVC,,0.00,WeatherDisplay:10.37,2013-03-17 08:50:00,
2013-03-17 04:56:00,50.7,47.6,29.92,ESE,115,0.0,0.0,89,0.00,OVC,,0.00,WeatherDisplay:10.37,2013-03-17 08:56:00,
2013-03-17 05:02:00,50.8,47.7,29.91,ESE,114,0.0,0.0,89,0.00,OVC,,0.00,WeatherDisplay:10.37,2013-03-17 09:02:00,
2013-03-17 05:07:00,50.9,47.8,29.92,ESE,114,0.0,0.0,89,0.00,OVC,,0.00,WeatherDisplay:10.37,2013-03-17 09:07:00,
2013-03-17 05:12:00,51.0,47.9,29.92,ESE,114,0.0,1.1,89,0.00,OVC,,0.00,WeatherDisplay:10.37,2013-03-17 09:12:00,
2013-03-17 05:18:00,51.0,47.9,29.92,ESE,116,0.0,0.0,89,0.00,BKN,,0.00,WeatherDisplay:10.37,2013-03-17 09:18:00,
2013-03-17 05:23:00,51.2,48.1,29.92,ESE,114,0.0,0.0,89,0.00,BKN,,0.00,WeatherDisplay:10.37,2013-03-17 09:23:00,
2013-03-17 05:28:00,51.2,47.8,29.92,ESE,114,0.0,0.0,88,0.00,BKN,,0.00,WeatherDisplay:10.37,2013-03-17 09:28:00,
2013-03-17 05:33:00,51.2,47.8,29.92,ESE,115,0.0,0.0,88,0.00,BKN,,0.00,WeatherDisplay:10.37,2013-03-17 09:33:00,
2013-03-17 05:38:00,51.0,47.6,29.92,ESE,114,0.0,0.0,88,0.00,BKN,,0.00,WeatherDisplay:10.37,2013-03-17 09:38:00,
2013-03-17 05:43:00,50.7,47.3,29.93,ESE,114,0.0,1.0,88,0.00,BKN,,0.00,WeatherDisplay:10.37,2013-03-17 09:43:00,
2013-03-17 05:48:00,50.5,47.4,29.93,ESE,115,0.0,0.0,89,0.00,BKN,,0.00,WeatherDisplay:10.37,2013-03-17 09:48:00,
2013-03-17 05:53:00,50.6,47.8,29.93,ESE,115,0.0,1.1,90,0.00,BKN,,0.00,WeatherDisplay:10.37,2013-03-17 09:53:00,
2013-03-17 05:58:00,51.0,47.9,29.93,ESE,114,0.0,1.0,89,0.00,BKN,,0.00,WeatherDisplay:10.37,2013-03-17 09:58:00,
2013-03-17 06:03:00,50.7,47.6,29.94,ESE,118,0.1,1.1,89,0.00,BKN,,0.00,WeatherDisplay:10.37,2013-03-17 10:03:00,
2013-03-17 06:08:00,50.7,47.6,29.94,ESE,118,0.0,0.0,89,0.00,BKN,,0.00,WeatherDisplay:10.37,2013-03-17 10:08:00,
2013-03-17 06:13:00,50.6,47.5,29.94,ESE,118,0.0,0.0,89,0.00,BKN,,0.00,WeatherDisplay:10.37,2013-03-17 10:13:00,
2013-03-17 06:18:00,50.7,47.9,29.95,ESE,118,0.0,0.0,90,0.00,BKN,,0.00,WeatherDisplay:10.37,2013-03-17 10:18:00,
2013-03-17 06:23:00,50.8,48.0,29.95,ESE,118,0.2,1.1,90,0.00,BKN,,0.00,WeatherDisplay:10.37,2013-03-17 10:23:00,
2013-03-17 06:28:00,51.0,47.9,29.96,ESE,104,0.0,1.1,89,0.00,BKN,,0.00,WeatherDisplay:10.37,2013-03-17 10:28:00,
2013-03-17 06:33:00,51.0,47.9,29.96,East,94,0.5,1.1,89,0.00,BKN,,0.00,WeatherDisplay:10.37,2013-03-17 10:33:00,
2013-03-17 06:38:00,51.0,47.9,29.96,East,101,0.0,0.0,89,0.00,BKN,,0.00,WeatherDisplay:10.37,2013-03-17 10:38:00,
2013-03-17 06:43:00,50.8,47.7,29.96,SE,125,0.0,0.0,89,0.00,BKN,,0.00,WeatherDisplay:10.37,2013-03-17 10:43:00,
2013-03-17 06:48:00,50.6,47.5,29.97,SE,126,0.1,0.0,89,0.00,OVC,,0.00,WeatherDisplay:10.37,2013-03-17 10:48:00,
2013-03-17 06:53:00,50.4,47.6,29.97,SE,139,0.1,1.0,90,0.00,OVC,,0.00,WeatherDisplay:10.37,2013-03-17 10:53:00,
2013-03-17 06:58:00,50.1,47.3,29.98,SE,138,0.1,1.0,90,0.00,OVC,,0.00,WeatherDisplay:10.37,2013-03-17 10:58:00,
2013-03-17 07:03:00,50.0,47.5,29.99,SE,128,0.0,0.0,91,0.00,OVC,,0.00,WeatherDisplay:10.37,2013-03-17 11:03:00,
2013-03-17 07:08:00,49.8,47.3,29.99,ESE,117,0.3,1.1,91,0.00,OVC,,0.00,WeatherDisplay:10.37,2013-03-17 11:08:00,
2013-03-17 07:13:00,49.5,46.7,29.99,ESE,121,0.4,1.0,90,0.00,OVC,,0.00,WeatherDisplay:10.37,2013-03-17 11:13:00,
2013-03-17 07:18:00,49.2,46.4,29.98,SE,143,0.0,1.1,90,0.00,OVC,,0.00,WeatherDisplay:10.37,2013-03-17 11:18:00,
2013-03-17 07:23:00,49.0,45.9,29.99,ESE,120,0.1,1.1,89,0.00,OVC,,0.00,WeatherDisplay:10.37,2013-03-17 11:23:00,
2013-03-17 07:28:00,48.7,45.9,29.99,ESE,118,0.1,1.0,90,0.00,OVC,,0.00,WeatherDisplay:10.37,2013-03-17 11:28:00,
2013-03-17 07:33:00,48.3,45.2,29.99,NE,39,0.3,2.3,89,0.00,OVC,,0.00,WeatherDisplay:10.37,2013-03-17 11:33:00,
2013-03-17 07:38:00,47.9,44.8,30.00,SSW,198,0.4,2.3,89,0.00,OVC,,0.00,WeatherDisplay:10.37,2013-03-17 11:38:00,
2013-03-17 07:43:00,47.5,44.4,30.00,SE,129,0.0,0.0,89,0.00,OVC,,0.00,WeatherDisplay:10.37,2013-03-17 11:43:00,
2013-03-17 07:48:00,47.2,44.1,29.99,SE,127,0.0,1.1,89,0.00,OVC,,0.00,WeatherDisplay:10.37,2013-03-17 11:48:00,
2013-03-17 07:53:00,47.0,43.9,30.00,SE,127,0.0,1.0,89,0.00,OVC,,0.00,WeatherDisplay:10.37,2013-03-17 11:53:00,
2013-03-17 07:58:00,46.9,43.8,30.01,North,4,0.0,0.0,89,0.00,OVC,,0.00,WeatherDisplay:10.37,2013-03-17 11:58:00,
2013-03-17 08:03:00,46.7,43.3,30.01,ESE,115,0.4,1.1,88,0.00,OVC,,0.00,WeatherDisplay:10.37,2013-03-17 12:03:00,
2013-03-17 08:08:00,46.7,43.0,30.01,ESE,115,0.1,1.0,87,0.00,OVC,,0.00,WeatherDisplay:10.37,2013-03-17 12:08:00,
2013-03-17 08:13:00,46.6,43.2,30.01,East,101,0.1,1.1,88,0.00,OVC,,0.00,WeatherDisplay:10.37,2013-03-17 12:13:00,
2013-03-17 08:18:00,46.3,42.6,30.01,East,96,0.4,1.1,87,0.00,OVC,,0.00,WeatherDisplay:10.37,2013-03-17 12:18:00,
2013-03-17 08:23:00,46.1,42.7,30.02,East,94,0.0,1.1,88,0.00,OVC,,0.00,WeatherDisplay:10.37,2013-03-17 12:23:00,
2013-03-17 08:28:00,45.8,42.4,30.02,NNW,339,0.0,1.1,88,0.00,OVC,,0.00,WeatherDisplay:10.37,2013-03-17 12:28:00,
2013-03-17 08:33:00,45.6,42.5,30.03,NW,323,0.0,0.0,89,0.00,OVC,,0.00,WeatherDisplay:10.37,2013-03-17 12:33:00,
2013-03-17 08:39:00,45.4,42.3,30.04,ENE,70,0.0,0.0,89,0.00,OVC,,0.00,WeatherDisplay:10.37,2013-03-17 12:39:00,
2013-03-17 08:44:00,45.3,42.5,30.05,ENE,58,0.3,1.1,90,0.00,OVC,,0.00,WeatherDisplay:10.37,2013-03-17 12:44:00,
2013-03-17 08:49:00,45.2,42.2,30.04,East,92,0.0,1.0,89,0.00,OVC,,0.00,WeatherDisplay:10.37,2013-03-17 12:49:00,
2013-03-17 08:54:00,45.1,42.3,30.06,WNW,298,0.1,1.0,90,0.01,RA,,0.01,WeatherDisplay:10.37,2013-03-17 12:54:00,
2013-03-17 08:59:00,45.0,42.5,30.07,WNW,297,0.0,0.0,91,0.01,RA,,0.01,WeatherDisplay:10.37,2013-03-17 12:59:00,
2013-03-17 09:04:00,44.8,42.3,30.05,ESE,103,0.0,1.1,91,0.02,-RA,,0.02,WeatherDisplay:10.37,2013-03-17 13:04:00,
2013-03-17 09:09:00,44.6,42.4,30.05,East,98,0.0,0.0,92,0.02,-RA,,0.02,WeatherDisplay:10.37,2013-03-17 13:09:00,
2013-03-17 09:14:00,44.4,42.2,30.06,ENE,67,0.0,0.0,92,0.03,-RA,,0.03,WeatherDisplay:10.37,2013-03-17 13:14:00,
2013-03-17 09:19:00,44.4,42.5,30.07,ENE,67,0.0,0.0,93,0.03,-RA,,0.03,WeatherDisplay:10.37,2013-03-17 13:19:00,
2013-03-17 09:24:00,44.4,42.5,30.07,ENE,66,0.0,0.0,93,0.03,-RA,,0.03,WeatherDisplay:10.37,2013-03-17 13:24:00,
2013-03-17 09:29:00,44.3,42.4,30.06,ENE,67,0.0,0.0,93,0.03,-RA,,0.03,WeatherDisplay:10.37,2013-03-17 13:29:00,
2013-03-17 09:34:00,44.2,42.3,30.07,ESE,105,0.1,1.0,93,0.03,-RA,,0.03,WeatherDisplay:10.37,2013-03-17 13:34:00,
2013-03-17 09:39:00,44.2,42.3,30.08,ESE,105,0.0,0.0,93,0.03,-RA,,0.03,WeatherDisplay:10.37,2013-03-17 13:39:00,
2013-03-17 09:44:00,44.2,42.3,30.07,ESE,107,0.0,0.0,93,0.03,-RA,,0.03,WeatherDisplay:10.37,2013-03-17 13:44:00,
2013-03-17 09:49:00,43.9,42.0,30.07,ESE,108,0.0,0.0,93,0.03,-RA,,0.03,WeatherDisplay:10.37,2013-03-17 13:49:00,
2013-03-17 09:54:00,43.8,42.2,30.06,East,87,0.3,1.0,94,0.02,-RA,,0.03,WeatherDisplay:10.37,2013-03-17 13:54:00,
2013-03-17 09:59:00,43.8,42.2,30.07,WNW,285,0.0,1.0,94,0.03,-RA,,0.04,WeatherDisplay:10.37,2013-03-17 13:59:00,
2013-03-17 10:04:00,43.6,42.0,30.07,WNW,285,0.0,0.0,94,0.02,-RA,,0.04,WeatherDisplay:10.37,2013-03-17 14:04:00,
2013-03-17 10:09:00,43.5,41.6,30.07,WNW,285,0.0,1.1,93,0.02,-RA,,0.04,WeatherDisplay:10.37,2013-03-17 14:09:00,
2013-03-17 10:14:00,43.3,41.7,30.07,ENE,75,0.2,1.1,94,0.01,-RA,,0.04,WeatherDisplay:10.37,2013-03-17 14:14:00,
2013-03-17 10:19:00,43.4,41.8,30.08,ENE,75,0.0,1.1,94,0.01,RA,,0.04,WeatherDisplay:10.37,2013-03-17 14:19:00,
2013-03-17 10:24:00,43.2,41.6,30.08,ESE,104,0.9,1.0,94,0.01,RA,,0.04,WeatherDisplay:10.37,2013-03-17 14:24:00,
2013-03-17 10:29:00,43.1,41.5,30.08,NW,322,0.0,0.0,94,0.01,OVC,,0.04,WeatherDisplay:10.37,2013-03-17 14:29:00,
2013-03-17 10:34:00,43.2,41.6,30.08,ESE,118,0.9,2.0,94,0.01,OVC,,0.04,WeatherDisplay:10.37,2013-03-17 14:34:00,
2013-03-17 10:39:00,43.1,41.5,30.07,ESE,118,0.0,0.0,94,0.01,OVC,,0.04,WeatherDisplay:10.37,2013-03-17 14:39:00,
2013-03-17 10:44:00,43.1,41.5,30.08,NNE,23,0.0,0.0,94,0.01,OVC,,0.04,WeatherDisplay:10.37,2013-03-17 14:44:00,
2013-03-17 10:49:00,42.9,41.3,30.08,ESE,110,0.0,0.0,94,0.01,OVC,,0.04,WeatherDisplay:10.37,2013-03-17 14:49:00,
2013-03-17 10:54:00,42.8,40.9,30.09,East,79,0.3,1.1,93,0.01,OVC,,0.04,WeatherDisplay:10.37,2013-03-17 14:54:00,
2013-03-17 10:59:00,42.7,41.1,30.09,ESE,102,0.0,1.0,94,0.00,OVC,,0.04,WeatherDisplay:10.37,2013-03-17 14:59:00,
2013-03-17 11:04:00,42.5,40.6,30.09,East,84,0.6,2.0,93,0.00,OVC,,0.04,WeatherDisplay:10.37,2013-03-17 15:04:00,
2013-03-17 11:09:00,42.3,40.4,30.09,East,98,0.1,1.1,93,0.00,OVC,,0.04,WeatherDisplay:10.37,2013-03-17 15:09:00,
2013-03-17 11:14:00,42.2,40.3,30.09,NE,49,0.2,1.0,93,0.00,OVC,,0.04,WeatherDisplay:10.37,2013-03-17 15:14:00,
2013-03-17 11:20:00,42.2,40.3,30.10,NNE,30,0.1,1.1,93,0.00,OVC,,0.04,WeatherDisplay:10.37,2013-03-17 15:20:00,
2013-03-17 11:25:00,42.1,40.2,30.10,NE,45,0.5,1.0,93,0.00,OVC,,0.04,WeatherDisplay:10.37,2013-03-17 15:25:00,
2013-03-17 11:30:00,41.9,40.0,30.10,ESE,121,0.0,1.1,93,0.00,OVC,,0.04,WeatherDisplay:10.37,2013-03-17 15:30:00,
2013-03-17 11:35:00,41.9,40.3,30.10,SE,126,0.1,1.0,94,0.00,OVC,,0.04,WeatherDisplay:10.37,2013-03-17 15:35:00,
2013-03-17 11:40:00,41.8,40.2,30.10,ESE,122,0.1,1.0,94,0.00,OVC,,0.04,WeatherDisplay:10.37,2013-03-17 15:40:00,
2013-03-17 11:45:00,41.6,39.7,30.11,ESE,108,0.0,0.0,93,0.00,OVC,,0.04,WeatherDisplay:10.37,2013-03-17 15:45:00,
2013-03-17 11:50:00,41.5,39.6,30.11,NNW,331,0.1,1.1,93,0.01,-RA,,0.05,WeatherDisplay:10.37,2013-03-17 15:50:00,
2013-03-17 11:55:00,41.5,39.9,30.11,ENE,75,0.0,0.0,94,0.01,-RA,,0.05,WeatherDisplay:10.37,2013-03-17 15:55:00,
2013-03-17 12:00:00,41.5,39.9,30.11,East,96,0.5,2.0,94,0.01,-RA,,0.05,WeatherDisplay:10.37,2013-03-17 16:00:00,
2013-03-17 12:05:00,41.4,39.5,30.11,East,98,0.1,1.1,93,0.01,-RA,,0.05,WeatherDisplay:10.37,2013-03-17 16:05:00,
2013-03-17 12:10:00,41.4,39.8,30.11,East,98,0.0,0.0,94,0.01,-RA,,0.05,WeatherDisplay:10.37,2013-03-17 16:10:00,
2013-03-17 12:15:00,41.5,39.9,30.11,East,98,0.0,0.0,94,0.01,-RA,,0.05,WeatherDisplay:10.37,2013-03-17 16:15:00,
2013-03-17 12:20:00,41.5,39.9,30.11,East,100,0.0,0.0,94,0.01,-RA,,0.05,WeatherDisplay:10.37,2013-03-17 16:20:00,
2013-03-17 12:25:00,41.5,39.9,30.11,ESE,117,0.0,0.0,94,0.01,-RA,,0.05,WeatherDisplay:10.37,2013-03-17 16:25:00,
2013-03-17 12:30:00,41.2,39.6,30.11,ESE,118,0.1,1.1,94,0.01,-RA,,0.05,WeatherDisplay:10.37,2013-03-17 16:30:00,
2013-03-17 12:36:00,41.5,40.2,30.11,SE,124,0.2,1.1,95,0.02,-RA,,0.06,WeatherDisplay:10.37,2013-03-17 16:36:00,
2013-03-17 12:41:00,41.5,39.9,30.11,SE,126,0.0,0.0,94,0.02,-RA,,0.06,WeatherDisplay:10.37,2013-03-17 16:41:00,
2013-03-17 12:46:00,41.4,39.8,30.11,SE,126,0.0,1.0,94,0.02,-RA,,0.06,WeatherDisplay:10.37,2013-03-17 16:46:00,
2013-03-17 12:51:00,41.5,39.9,30.11,SE,136,0.1,1.1,94,0.01,-RA,,0.06,WeatherDisplay:10.37,2013-03-17 16:51:00,
2013-03-17 12:57:00,41.6,40.0,30.11,ESE,119,0.0,0.0,94,0.01,-RA,,0.06,WeatherDisplay:10.37,2013-03-17 16:57:00,
2013-03-17 13:02:00,41.2,39.3,30.11,East,98,1.2,2.3,93,0.01,-RA,,0.06,WeatherDisplay:10.37,2013-03-17 17:02:00,
2013-03-17 13:08:00,41.1,39.5,30.10,ESE,104,0.0,0.0,94,0.01,-RA,,0.06,WeatherDisplay:10.37,2013-03-17 17:08:00,
2013-03-17 13:13:00,41.1,39.2,30.10,East,101,1.3,3.0,93,0.01,-RA,,0.06,WeatherDisplay:10.37,2013-03-17 17:13:00,
2013-03-17 13:18:00,40.9,39.3,30.10,ESE,108,0.2,1.1,94,0.01,OVC,,0.06,WeatherDisplay:10.37,2013-03-17 17:18:00,
2013-03-17 13:23:00,40.9,39.3,30.10,ENE,75,0.8,2.0,94,0.01,OVC,,0.06,WeatherDisplay:10.37,2013-03-17 17:23:00,
2013-03-17 13:28:00,41.0,39.7,30.10,East,101,0.5,2.0,95,0.01,OVC,,0.06,WeatherDisplay:10.37,2013-03-17 17:28:00,
2013-03-17 13:33:00,41.0,39.4,30.10,East,96,0.0,1.1,94,0.01,OVC,,0.06,WeatherDisplay:10.37,2013-03-17 17:33:00,
2013-03-17 13:38:00,41.0,39.4,30.09,East,85,0.0,2.3,94,0.00,OVC,,0.06,WeatherDisplay:10.37,2013-03-17 17:38:00,
2013-03-17 13:43:00,40.9,39.0,30.09,ENE,77,1.5,3.0,93,0.00,OVC,,0.06,WeatherDisplay:10.37,2013-03-17 17:43:00,
2013-03-17 13:48:00,40.7,38.8,30.09,ENE,72,0.8,1.0,93,0.00,OVC,,0.06,WeatherDisplay:10.37,2013-03-17 17:48:00,
2013-03-17 13:53:00,40.6,38.7,30.09,East,92,0.4,2.0,93,0.00,OVC,,0.06,WeatherDisplay:10.37,2013-03-17 17:53:00,
2013-03-17 13:59:00,40.4,38.5,30.09,East,79,0.7,2.3,93,0.00,OVC,,0.06,WeatherDisplay:10.37,2013-03-17 17:59:00,
2013-03-17 14:04:00,40.4,38.5,30.09,East,89,0.5,1.1,93,0.00,OVC,,0.06,WeatherDisplay:10.37,2013-03-17 18:04:00,
2013-03-17 14:09:00,40.2,38.3,30.09,East,84,0.0,1.1,93,0.00,OVC,,0.06,WeatherDisplay:10.37,2013-03-17 18:09:00,
2013-03-17 14:14:00,40.3,38.7,30.09,ENE,70,0.1,1.0,94,0.00,OVC,,0.06,WeatherDisplay:10.37,2013-03-17 18:14:00,
2013-03-17 14:19:00,40.4,38.5,30.09,East,101,0.0,1.1,93,0.00,OVC,,0.06,WeatherDisplay:10.37,2013-03-17 18:19:00,
2013-03-17 14:24:00,40.3,38.7,30.08,East,89,0.7,2.0,94,0.00,OVC,,0.06,WeatherDisplay:10.37,2013-03-17 18:24:00,
2013-03-17 14:29:00,40.3,38.4,30.08,East,94,0.6,1.1,93,0.00,OVC,,0.06,WeatherDisplay:10.37,2013-03-17 18:29:00,
2013-03-17 14:34:00,40.3,38.7,30.08,SE,142,0.0,0.0,94,0.00,OVC,,0.06,WeatherDisplay:10.37,2013-03-17 18:34:00,
2013-03-17 14:39:00,40.4,38.8,30.09,SE,142,0.1,1.0,94,0.00,OVC,,0.06,WeatherDisplay:10.37,2013-03-17 18:39:00,
2013-03-17 14:44:00,40.4,38.8,30.09,SE,127,0.0,0.0,94,0.00,OVC,,0.06,WeatherDisplay:10.37,2013-03-17 18:44:00,
2013-03-17 14:49:00,40.4,38.8,30.08,ESE,103,0.0,1.1,94,0.00,OVC,,0.06,WeatherDisplay:10.37,2013-03-17 18:49:00,
2013-03-17 14:54:00,40.3,38.4,30.08,ESE,102,0.0,1.1,93,0.00,OVC,,0.06,WeatherDisplay:10.37,2013-03-17 18:54:00,
2013-03-17 14:59:00,40.3,38.7,30.08,ESE,102,0.0,1.1,94,0.00,OVC,,0.06,WeatherDisplay:10.37,2013-03-17 18:59:00,
2013-03-17 15:04:00,40.3,38.7,30.08,ESE,102,0.0,0.0,94,0.00,OVC,,0.06,WeatherDisplay:10.37,2013-03-17 19:04:00,
2013-03-17 15:09:00,40.4,38.8,30.08,East,101,0.0,0.0,94,0.00,OVC,,0.06,WeatherDisplay:10.37,2013-03-17 19:09:00,
2013-03-17 15:15:00,40.2,38.6,30.08,East,101,0.0,0.0,94,0.00,OVC,,0.06,WeatherDisplay:10.37,2013-03-17 19:15:00,
2013-03-17 15:20:00,40.1,38.5,30.08,ENE,65,0.7,2.0,94,0.00,-RA,,0.06,WeatherDisplay:10.37,2013-03-17 19:20:00,
2013-03-17 15:25:00,40.1,38.5,30.08,ESE,117,0.0,0.0,94,0.00,-RA,,0.06,WeatherDisplay:10.37,2013-03-17 19:25:00,
2013-03-17 15:30:00,40.0,38.4,30.08,ESE,117,0.0,0.0,94,0.00,-RA,,0.06,WeatherDisplay:10.37,2013-03-17 19:30:00,
2013-03-17 15:35:00,39.9,38.3,30.08,East,82,0.4,1.1,94,0.00,-RA,,0.06,WeatherDisplay:10.37,2013-03-17 19:35:00,
2013-03-17 15:41:00,39.7,38.1,30.08,SE,142,0.0,1.0,94,0.00,-RA,,0.06,WeatherDisplay:10.37,2013-03-17 19:41:00,
2013-03-17 15:46:00,39.7,38.1,30.08,East,83,0.3,1.1,94,0.00,-RA,,0.06,WeatherDisplay:10.37,2013-03-17 19:46:00,
2013-03-17 15:52:00,39.4,37.8,30.09,ESE,103,0.0,1.1,94,0.00,-RA,,0.06,WeatherDisplay:10.37,2013-03-17 19:52:00,
2013-03-17 15:57:00,39.3,37.7,30.09,ENE,68,0.3,1.1,94,0.00,-RA,,0.06,WeatherDisplay:10.37,2013-03-17 19:57:00,
2013-03-17 16:03:00,39.4,38.1,30.08,East,80,0.6,2.0,95,0.00,-RA,,0.06,WeatherDisplay:10.37,2013-03-17 20:03:00,
2013-03-17 16:08:00,39.4,37.8,30.08,East,86,0.0,1.1,94,0.00,-RA,,0.06,WeatherDisplay:10.37,2013-03-17 20:08:00,
2013-03-17 16:13:00,39.5,37.9,30.09,East,87,0.0,0.0,94,0.00,-RA,,0.06,WeatherDisplay:10.37,2013-03-17 20:13:00,
2013-03-17 16:19:00,39.4,37.8,30.09,ENE,78,0.0,1.1,94,0.00,OVC,,0.06,WeatherDisplay:10.37,2013-03-17 20:19:00,
2013-03-17 16:24:00,39.3,37.7,30.08,East,93,0.6,2.3,94,0.00,OVC,,0.06,WeatherDisplay:10.37,2013-03-17 20:24:00,
2013-03-17 16:29:00,39.3,37.4,30.09,ESE,104,0.0,0.0,93,0.00,OVC,,0.06,WeatherDisplay:10.37,2013-03-17 20:29:00,
2013-03-17 16:34:00,39.3,37.4,30.09,NNE,15,0.0,0.0,93,0.00,OVC,,0.06,WeatherDisplay:10.37,2013-03-17 20:34:00,
2013-03-17 16:39:00,39.3,37.4,30.09,ENE,75,0.5,2.3,93,0.00,OVC,,0.06,WeatherDisplay:10.37,2013-03-17 20:39:00,
2013-03-17 16:44:00,39.2,37.1,30.09,East,93,0.0,0.0,92,0.00,OVC,,0.06,WeatherDisplay:10.37,2013-03-17 20:44:00,
2013-03-17 16:49:00,39.3,37.4,30.09,East,93,0.0,0.0,93,0.00,OVC,,0.06,WeatherDisplay:10.37,2013-03-17 20:49:00,
2013-03-17 16:54:00,39.3,37.2,30.09,East,94,0.0,0.0,92,0.00,OVC,,0.06,WeatherDisplay:10.37,2013-03-17 20:54:00,
2013-03-17 17:00:00,39.2,37.1,30.10,East,85,0.1,2.3,92,0.00,OVC,,0.06,WeatherDisplay:10.37,2013-03-17 21:00:00,
2013-03-17 17:05:00,39.3,37.4,30.09,East,84,0.0,0.0,93,0.00,OVC,,0.06,WeatherDisplay:10.37,2013-03-17 21:05:00,
2013-03-17 17:10:00,39.4,37.5,30.09,East,85,0.0,0.0,93,0.00,OVC,,0.06,WeatherDisplay:10.37,2013-03-17 21:10:00,
2013-03-17 17:16:00,39.3,37.2,30.09,East,87,0.0,1.1,92,0.00,OVC,,0.06,WeatherDisplay:10.37,2013-03-17 21:16:00,
2013-03-17 17:21:00,39.3,37.4,30.09,East,94,0.1,1.1,93,0.00,OVC,,0.06,WeatherDisplay:10.37,2013-03-17 21:21:00,
2013-03-17 17:26:00,39.2,37.3,30.10,East,80,0.0,1.1,93,0.00,OVC,,0.06,WeatherDisplay:10.37,2013-03-17 21:26:00,
2013-03-17 17:32:00,38.9,37.0,30.10,East,80,0.1,2.3,93,0.00,OVC,,0.06,WeatherDisplay:10.37,2013-03-17 21:32:00,
2013-03-17 17:37:00,38.8,37.2,30.10,East,80,0.0,0.0,94,0.00,OVC,,0.06,WeatherDisplay:10.37,2013-03-17 21:37:00,
2013-03-17 17:42:00,38.9,37.3,30.10,East,80,0.0,0.0,94,0.00,OVC,,0.06,WeatherDisplay:10.37,2013-03-17 21:42:00,
2013-03-17 17:47:00,38.9,37.3,30.10,East,82,0.0,0.0,94,0.00,OVC,,0.06,WeatherDisplay:10.37,2013-03-17 21:47:00,
2013-03-17 17:52:00,38.7,36.9,30.11,East,80,0.1,2.3,93,0.00,OVC,,0.06,WeatherDisplay:10.37,2013-03-17 21:52:00,
2013-03-17 17:57:00,38.6,37.0,30.12,ESE,122,1.2,3.5,94,0.00,OVC,,0.06,WeatherDisplay:10.37,2013-03-17 21:57:00,
2013-03-17 18:02:00,38.5,36.9,30.12,ESE,121,0.1,2.3,94,0.00,OVC,,0.06,WeatherDisplay:10.37,2013-03-17 22:02:00,
2013-03-17 18:07:00,38.5,36.9,30.12,ENE,70,0.0,1.1,94,0.00,OVC,,0.06,WeatherDisplay:10.37,2013-03-17 22:07:00,
2013-03-17 18:12:00,38.4,36.8,30.12,East,91,0.3,1.1,94,0.00,OVC,,0.07,WeatherDisplay:10.37,2013-03-17 22:12:00,
2013-03-17 18:17:00,38.4,36.8,30.12,ENE,72,0.0,1.0,94,0.01,RA,,0.07,WeatherDisplay:10.37,2013-03-17 22:17:00,
2013-03-17 18:22:00,38.4,37.1,30.12,ENE,72,0.0,1.0,95,0.01,RA,,0.07,WeatherDisplay:10.37,2013-03-17 22:22:00,
2013-03-17 18:28:00,38.3,36.7,30.12,East,89,0.3,1.1,94,0.01,RA,,0.07,WeatherDisplay:10.37,2013-03-17 22:28:00,
2013-03-17 18:33:00,38.3,37.0,30.11,East,89,0.0,0.0,95,0.01,RA,,0.07,WeatherDisplay:10.37,2013-03-17 22:33:00,
2013-03-17 18:38:00,38.4,37.1,30.12,East,89,0.0,1.1,95,0.01,RA,,0.07,WeatherDisplay:10.37,2013-03-17 22:38:00,
2013-03-17 18:43:00,38.4,37.1,30.12,East,89,0.0,0.0,95,0.01,OVC,,0.07,WeatherDisplay:10.37,2013-03-17 22:43:00,
2013-03-17 18:48:00,38.3,37.0,30.11,East,101,0.0,1.1,95,0.03,RA,,0.09,WeatherDisplay:10.37,2013-03-17 22:48:00,
2013-03-17 18:53:00,38.2,36.9,30.12,East,101,0.0,1.1,95,0.03,RA,,0.09,WeatherDisplay:10.37,2013-03-17 22:53:00,
2013-03-17 18:58:00,38.1,36.8,30.13,SE,138,0.0,0.0,95,0.00,RA,,0.09,WeatherDisplay:10.37,2013-03-17 22:58:00,
2013-03-17 19:03:00,38.0,36.7,30.12,ENE,57,0.0,0.0,95,0.00,RA,,0.09,WeatherDisplay:10.37,2013-03-17 23:03:00,
2013-03-17 19:09:00,37.9,36.6,30.12,ESE,102,0.1,1.0,95,0.04,RA,,0.10,WeatherDisplay:10.37,2013-03-17 23:09:00,
2013-03-17 19:14:00,37.8,36.5,30.12,East,99,0.0,0.0,95,0.04,RA,,0.11,WeatherDisplay:10.37,2013-03-17 23:14:00,
2013-03-17 19:20:00,37.9,36.6,30.12,NW,318,0.6,2.0,95,0.05,RA,,0.12,WeatherDisplay:10.37,2013-03-17 23:20:00,
2013-03-17 19:25:00,37.9,36.6,30.13,NW,314,0.0,1.1,95,0.05,RA,,0.12,WeatherDisplay:10.37,2013-03-17 23:25:00,
2013-03-17 19:30:00,37.8,36.8,30.13,ESE,104,0.0,1.1,96,0.07,RA,,0.14,WeatherDisplay:10.37,2013-03-17 23:30:00,
2013-03-17 19:35:00,37.8,36.8,30.13,NE,41,0.0,0.0,96,0.08,RA,,0.15,WeatherDisplay:10.37,2013-03-17 23:35:00,
2013-03-17 19:40:00,37.7,36.7,30.13,East,101,0.2,1.0,96,0.10,RA,,0.17,WeatherDisplay:10.37,2013-03-17 23:40:00,
2013-03-17 19:45:00,37.6,36.3,30.13,NE,53,0.0,0.0,95,0.10,RA,,0.17,WeatherDisplay:10.37,2013-03-17 23:45:00,
2013-03-17 19:50:00,37.5,36.2,30.13,East,91,1.1,2.3,95,0.09,RA,,0.19,WeatherDisplay:10.37,2013-03-17 23:50:00,
2013-03-17 19:55:00,37.4,36.4,30.14,NNW,335,0.0,1.1,96,0.12,RA,,0.21,WeatherDisplay:10.37,2013-03-17 23:55:00,
2013-03-17 20:00:00,37.4,36.4,30.14,North,349,0.0,1.0,96,0.15,RA,,0.24,WeatherDisplay:10.37,2013-03-18 00:00:00,
2013-03-17 20:05:00,37.4,36.4,30.14,East,101,0.0,0.0,96,0.17,-RA,,0.26,WeatherDisplay:10.37,2013-03-18 00:05:00,
2013-03-17 20:10:00,37.3,36.3,30.14,North,357,0.6,2.0,96,0.18,-RA,,0.28,WeatherDisplay:10.37,2013-03-18 00:10:00,
2013-03-17 20:15:00,37.3,36.3,30.14,NW,305,0.0,1.1,96,0.20,-RA,,0.31,WeatherDisplay:10.37,2013-03-18 00:15:00,
2013-03-17 20:20:00,37.3,36.3,30.14,NW,318,0.0,0.0,96,0.21,-RA,,0.33,WeatherDisplay:10.37,2013-03-18 00:20:00,
2013-03-17 20:25:00,37.3,36.3,30.15,NNW,340,0.3,1.1,96,0.22,-RA,,0.34,WeatherDisplay:10.37,2013-03-18 00:25:00,
2013-03-17 20:30:00,37.2,36.2,30.15,East,86,0.0,0.0,96,0.21,-RA,,0.35,WeatherDisplay:10.37,2013-03-18 00:30:00,
2013-03-17 20:35:00,37.1,36.1,30.15,ESE,104,0.0,0.0,96,0.21,-RA,,0.36,WeatherDisplay:10.37,2013-03-18 00:35:00,
2013-03-17 20:40:00,37.1,36.1,30.16,ESE,104,0.1,1.0,96,0.20,-RA,,0.37,WeatherDisplay:10.37,2013-03-18 00:40:00,
2013-03-17 20:45:00,37.0,36.0,30.15,East,89,0.0,1.1,96,0.21,-RA,,0.38,WeatherDisplay:10.37,2013-03-18 00:45:00,
2013-03-17 20:50:00,37.0,36.0,30.15,ENE,77,0.0,0.0,96,0.21,-RA,,0.39,WeatherDisplay:10.37,2013-03-18 00:50:00,
2013-03-17 20:55:00,37.0,36.0,30.15,ESE,108,0.1,1.1,96,0.19,-RA,,0.40,WeatherDisplay:10.37,2013-03-18 00:55:00,
2013-03-17 21:00:00,37.1,36.1,30.16,ESE,108,0.0,0.0,96,0.16,-RA,,0.41,WeatherDisplay:10.37,2013-03-18 01:00:00,
2013-03-17 21:05:00,37.2,36.2,30.17,NE,34,0.0,0.0,96,0.15,RA,,0.41,WeatherDisplay:10.37,2013-03-18 01:05:00,
2013-03-17 21:10:00,37.1,36.1,30.17,ESE,108,0.3,3.5,96,0.14,RA,,0.42,WeatherDisplay:10.37,2013-03-18 01:10:00,
2013-03-17 21:15:00,37.1,36.1,30.17,ESE,105,0.0,1.1,96,0.11,RA,,0.42,WeatherDisplay:10.37,2013-03-18 01:15:00,
2013-03-17 21:20:00,37.0,36.0,30.18,WNW,291,0.0,1.1,96,0.11,RA,,0.44,WeatherDisplay:10.37,2013-03-18 01:20:00,
2013-03-17 21:25:00,37.0,36.0,30.18,WNW,291,0.0,0.0,96,0.10,RA,,0.44,WeatherDisplay:10.37,2013-03-18 01:25:00,
2013-03-17 21:30:00,37.0,36.0,30.18,WNW,291,0.0,0.0,96,0.10,RA,,0.46,WeatherDisplay:10.37,2013-03-18 01:30:00,
2013-03-17 21:35:00,37.0,36.0,30.18,WNW,291,0.0,0.0,96,0.10,RA,,0.46,WeatherDisplay:10.37,2013-03-18 01:35:00,
2013-03-17 21:41:00,36.8,35.8,30.18,ENE,60,0.0,1.0,96,0.10,RA,,0.47,WeatherDisplay:10.37,2013-03-18 01:41:00,
2013-03-17 21:46:00,36.8,35.8,30.18,ENE,70,0.1,1.1,96,0.10,RA,,0.48,WeatherDisplay:10.37,2013-03-18 01:46:00,
2013-03-17 21:51:00,36.8,35.8,30.18,ENE,70,0.3,1.1,96,0.09,RA,,0.48,WeatherDisplay:10.37,2013-03-18 01:51:00,
2013-03-17 21:56:00,36.6,35.6,30.18,ESE,121,0.4,1.0,96,0.08,RA,,0.49,WeatherDisplay:10.37,2013-03-18 01:56:00,
2013-03-17 22:02:00,36.5,35.5,30.18,East,86,0.0,2.3,96,0.08,RA,,0.49,WeatherDisplay:10.37,2013-03-18 02:02:00,
2013-03-17 22:07:00,36.4,35.4,30.18,East,86,0.1,1.0,96,0.08,-RA,,0.49,WeatherDisplay:10.37,2013-03-18 02:07:00,
2013-03-17 22:12:00,36.5,35.5,30.19,NNE,16,0.0,0.0,96,0.07,-RA,,0.49,WeatherDisplay:10.37,2013-03-18 02:12:00,
2013-03-17 22:17:00,36.4,35.4,30.18,East,89,0.1,1.1,96,0.06,-RA,,0.49,WeatherDisplay:10.37,2013-03-18 02:17:00,
2013-03-17 22:22:00,36.5,35.5,30.19,WNW,302,0.0,1.1,96,0.06,-RA,,0.50,WeatherDisplay:10.37,2013-03-18 02:22:00,
2013-03-17 22:27:00,36.5,35.5,30.19,WNW,302,0.0,1.1,96,0.06,-RA,,0.50,WeatherDisplay:10.37,2013-03-18 02:27:00,
2013-03-17 22:32:00,36.5,35.5,30.19,SW,217,0.0,0.0,96,0.04,-RA,,0.50,WeatherDisplay:10.37,2013-03-18 02:32:00,
2013-03-17 22:37:00,36.5,35.5,30.18,South,187,0.0,0.0,96,0.04,-RA,,0.51,WeatherDisplay:10.37,2013-03-18 02:37:00,
2013-03-17 22:42:00,36.5,35.5,30.19,NNW,330,0.0,0.0,96,0.04,-RA,,0.51,WeatherDisplay:10.37,2013-03-18 02:42:00,
2013-03-17 22:47:00,36.5,35.5,30.19,NW,307,0.0,0.0,96,0.03,-RA,,0.51,WeatherDisplay:10.37,2013-03-18 02:47:00,
2013-03-17 22:52:00,36.4,35.4,30.19,NW,307,0.0,0.0,96,0.03,-RA,,0.51,WeatherDisplay:10.37,2013-03-18 02:52:00,
2013-03-17 22:57:00,36.4,35.4,30.19,SW,232,0.0,0.0,96,0.02,-RA,,0.51,WeatherDisplay:10.37,2013-03-18 02:57:00,
2013-03-17 23:02:00,36.3,35.3,30.19,SW,233,0.1,1.0,96,0.04,-RA,,0.53,WeatherDisplay:10.37,2013-03-18 03:02:00,
2013-03-17 23:07:00,36.3,35.3,30.19,WSW,242,0.0,1.1,96,0.05,-RA,,0.54,WeatherDisplay:10.37,2013-03-18 03:07:00,
2013-03-17 23:12:00,36.2,35.2,30.19,ESE,105,0.0,0.0,96,0.06,-RA,,0.55,WeatherDisplay:10.37,2013-03-18 03:12:00,
2013-03-17 23:17:00,36.2,35.2,30.19,NE,38,0.0,0.0,96,0.06,-RA,,0.55,WeatherDisplay:10.37,2013-03-18 03:17:00,
2013-03-17 23:22:00,36.2,35.2,30.19,ESE,104,0.0,2.3,96,0.05,RA,,0.56,WeatherDisplay:10.37,2013-03-18 03:22:00,
2013-03-17 23:27:00,36.1,35.1,30.19,SE,129,0.0,1.1,96,0.06,RA,,0.56,WeatherDisplay:10.37,2013-03-18 03:27:00,
2013-03-17 23:32:00,36.0,35.0,30.19,SE,143,0.0,0.0,96,0.07,RA,,0.57,WeatherDisplay:10.37,2013-03-18 03:32:00,
2013-03-17 23:38:00,36.0,35.0,30.19,SE,125,0.0,0.0,96,0.07,RA,,0.58,WeatherDisplay:10.37,2013-03-18 03:38:00,
2013-03-17 23:43:00,36.0,35.0,30.19,ESE,120,0.0,0.0,96,0.07,RA,,0.58,WeatherDisplay:10.37,2013-03-18 03:43:00,
2013-03-17 23:48:00,35.9,34.9,30.19,ESE,107,0.9,2.0,96,0.08,RA,,0.59,WeatherDisplay:10.37,2013-03-18 03:48:00,
2013-03-17 23:53:00,35.9,34.9,30.20,ESE,121,0.0,0.0,96,0.01,RA,,0.59,WeatherDisplay:10.37,2013-03-18 03:53:00,
2013-03-17 23:58:00,35.8,34.8,30.19,ESE,107,0.0,0.0,96,0.01,RA,,0.60,WeatherDisplay:10.37,2013-03-18 03:58:00,